When you browse on this site, cookies collect data to enhance your experience and personalize the content and advertising you see.
Visit our Privacy Policy to learn more. By continuing to use the site, you agree to this use of cookies and data.
  • In Hungary
  • List of Countries
  • For 7 days
  • Water Temperature
  • Weather Map
  • News
  • Weather Widgets
  • user-avatar
    Login

    Hourly Weather Maksakovo

    Today, 27 January, Monday

    Time Temperature Precipitation Wind Pressure Humidity
    00:00 +1°C° 0 mm 6 mps 739 mmHg 91%
    01:00 +1°C° 0 mm 5 mps 740 mmHg 92%
    02:00 0°C° 0 mm 4 mps 740 mmHg 90%
    03:00 0°C° 0.1 mm 4 mps 741 mmHg 92%
    04:00 +1°C° 0.1 mm 3 mps 741 mmHg 95%
    05:00 0°C° 0.1 mm 3 mps 741 mmHg 97%
    06:00 0°C° 0.1 mm 3 mps 742 mmHg 97%
    07:00 -1°C° 0.1 mm 2 mps 742 mmHg 96%
    08:00 -2°C° 0.1 mm 2 mps 743 mmHg 96%
    09:00 -2°C° 0.1 mm 2 mps 743 mmHg 95%
    10:00 -2°C° 0.1 mm 2 mps 743 mmHg 93%
    11:00 -2°C° 0.1 mm 2 mps 744 mmHg 92%
    12:00 -2°C° 0.1 mm 2 mps 744 mmHg 91%
    13:00 -3°C° 0.1 mm 2 mps 744 mmHg 91%
    14:00 -4°C° 0.1 mm 3 mps 744 mmHg 91%
    15:00 -4°C° 0.4 mm 3 mps 744 mmHg 92%
    16:00 -4°C° 0.4 mm 3 mps 744 mmHg 93%
    17:00 -4°C° 0.4 mm 3 mps 744 mmHg 95%
    18:00 -5°C° 0.5 mm 4 mps 744 mmHg 95%
    19:00 -5°C° 0.5 mm 4 mps 744 mmHg 95%
    20:00 -5°C° 0.5 mm 4 mps 744 mmHg 95%
    21:00 -5°C° 0.4 mm 4 mps 743 mmHg 95%
    22:00 -5°C° 0.4 mm 4 mps 743 mmHg 95%
    23:00 -5°C° 0.4 mm 4 mps 743 mmHg 95%

    Tomorrow, 28 January, Tuesday

    Time Temperature Precipitation Wind Pressure Humidity
    00:00 -5°C° 0.4 mm 4 mps 743 mmHg 95%
    01:00 -5°C° 0.4 mm 4 mps 742 mmHg 95%
    02:00 -5°C° 0.4 mm 4 mps 742 mmHg 95%
    03:00 -5°C° 0.3 mm 3 mps 742 mmHg 95%
    04:00 -5°C° 0.3 mm 3 mps 741 mmHg 95%
    05:00 -5°C° 0.3 mm 3 mps 741 mmHg 95%
    06:00 -5°C° 0.2 mm 3 mps 741 mmHg 96%
    07:00 -4°C° 0.2 mm 3 mps 741 mmHg 96%
    08:00 -3°C° 0.2 mm 2 mps 741 mmHg 96%
    09:00 -3°C° 0.2 mm 2 mps 741 mmHg 96%
    10:00 -3°C° 0.2 mm 2 mps 741 mmHg 96%
    11:00 -2°C° 0.2 mm 2 mps 741 mmHg 96%
    12:00 -2°C° 0.1 mm 2 mps 741 mmHg 95%
    13:00 -1°C° 0.1 mm 2 mps 741 mmHg 95%
    14:00 -1°C° 0.1 mm 2 mps 741 mmHg 95%
    15:00 +1°C° 0 mm 1 mps 740 mmHg 95%
    16:00 +1°C° 0 mm 1 mps 740 mmHg 96%
    17:00 +1°C° 0 mm 1 mps 740 mmHg 97%
    18:00 +1°C° 0 mm 1 mps 740 mmHg 97%
    19:00 0°C° 0 mm 1 mps 741 mmHg 97%
    20:00 0°C° 0 mm 1 mps 741 mmHg 97%
    21:00 -2°C° 0 mm 2 mps 740 mmHg 97%
    22:00 -2°C° 0 mm 2 mps 740 mmHg 97%
    23:00 -2°C° 0 mm 2 mps 740 mmHg 97%

    Day after tomorrow, 29 January, Wednesday

    Time Temperature Precipitation Wind Pressure Humidity
    00:00 -2°C° 0 mm 2 mps 740 mmHg 97%
    01:00 -2°C° 0 mm 2 mps 740 mmHg 97%
    02:00 -3°C° 0 mm 2 mps 740 mmHg 97%
    03:00 -3°C° 0 mm 2 mps 740 mmHg 96%
    04:00 -2°C° 0 mm 2 mps 739 mmHg 96%
    05:00 -2°C° 0 mm 2 mps 739 mmHg 96%
    06:00 -2°C° 0 mm 2 mps 739 mmHg 96%
    07:00 -2°C° 0 mm 2 mps 739 mmHg 95%
    08:00 -2°C° 0 mm 2 mps 739 mmHg 95%
    09:00 -2°C° 0 mm 3 mps 739 mmHg 95%
    10:00 -2°C° 0 mm 3 mps 739 mmHg 95%
    11:00 -1°C° 0 mm 3 mps 739 mmHg 95%
    12:00 -1°C° 0 mm 3 mps 739 mmHg 95%
    13:00 -2°C° 0 mm 3 mps 739 mmHg 95%
    14:00 -2°C° 0 mm 3 mps 739 mmHg 96%
    15:00 -1°C° 0 mm 3 mps 738 mmHg 96%
    16:00 -1°C° 0 mm 3 mps 738 mmHg 96%
    17:00 -2°C° 0 mm 4 mps 738 mmHg 96%
    18:00 -2°C° 0 mm 4 mps 738 mmHg 95%
    19:00 -2°C° 0 mm 4 mps 738 mmHg 95%
    20:00 -2°C° 0 mm 4 mps 737 mmHg 95%
    21:00 -1°C° 0 mm 4 mps 737 mmHg 95%
    22:00 -1°C° 0 mm 4 mps 737 mmHg 96%
    23:00 -1°C° 0 mm 4 mps 736 mmHg 96%

    30 January, Thursday

    Time Temperature Precipitation Wind Pressure Humidity
    00:00 -1°C° 0.2 mm 4 mps 736 mmHg 96%
    01:00 -1°C° 0.2 mm 4 mps 736 mmHg 97%
    02:00 -1°C° 0.2 mm 4 mps 736 mmHg 97%
    03:00 -1°C° 0.2 mm 4 mps 735 mmHg 98%
    04:00 -1°C° 0.2 mm 4 mps 735 mmHg 98%
    05:00 -1°C° 0.2 mm 4 mps 734 mmHg 98%
    06:00 -1°C° 0.2 mm 4 mps 734 mmHg 98%
    07:00 -1°C° 0.2 mm 4 mps 734 mmHg 97%
    08:00 -1°C° 0.2 mm 4 mps 734 mmHg 97%
    09:00 -1°C° 0.2 mm 4 mps 734 mmHg 97%
    10:00 -1°C° 0.2 mm 4 mps 734 mmHg 97%
    11:00 -1°C° 0.2 mm 4 mps 733 mmHg 97%
    12:00 -2°C° 0.2 mm 4 mps 733 mmHg 97%
    13:00 -2°C° 0.2 mm 4 mps 733 mmHg 96%
    14:00 -2°C° 0.2 mm 4 mps 733 mmHg 96%
    15:00 -2°C° 0.3 mm 4 mps 733 mmHg 96%
    16:00 -2°C° 0.3 mm 3 mps 733 mmHg 96%
    17:00 -2°C° 0.3 mm 3 mps 733 mmHg 96%
    18:00 -2°C° 0.1 mm 3 mps 733 mmHg 96%
    19:00 -4°C° 0.1 mm 3 mps 733 mmHg 96%
    20:00 -3°C° 0.1 mm 2 mps 733 mmHg 96%
    21:00 -3°C° 0.1 mm 2 mps 733 mmHg 96%
    22:00 -3°C° 0.1 mm 2 mps 733 mmHg 96%
    23:00 -3°C° 0.1 mm 2 mps 733 mmHg 97%

    31 January, Friday

    Time Temperature Precipitation Wind Pressure Humidity
    00:00 -3°C° 0 mm 2 mps 733 mmHg 97%
    01:00 -1°C° 0 mm 1 mps 733 mmHg 97%
    02:00 -2°C° 0 mm 1 mps 733 mmHg 97%
    03:00 -1°C° 0 mm 1 mps 733 mmHg 97%
    04:00 -1°C° 0 mm 1 mps 733 mmHg 97%
    05:00 -1°C° 0 mm 1 mps 733 mmHg 97%
    06:00 -1°C° 0 mm 1 mps 733 mmHg 96%
    07:00 -2°C° 0 mm 1 mps 733 mmHg 96%
    08:00 -2°C° 0 mm 1 mps 733 mmHg 96%
    09:00 -1°C° 0 mm 1 mps 734 mmHg 94%
    10:00 -2°C° 0 mm 0 mps 734 mmHg 92%
    11:00 -1°C° 0 mm 0 mps 734 mmHg 90%
    12:00 -1°C° 0 mm 0 mps 734 mmHg 89%
    13:00 -1°C° 0 mm 0 mps 734 mmHg 88%
    14:00 -1°C° 0 mm 0 mps 734 mmHg 88%
    15:00 -1°C° 0 mm 0 mps 734 mmHg 90%
    16:00 -2°C° 0 mm 0 mps 735 mmHg 92%
    17:00 -3°C° 0 mm 0 mps 735 mmHg 94%
    18:00 -3°C° 0 mm 0 mps 735 mmHg 95%
    19:00 -2°C° 0 mm 1 mps 735 mmHg 95%
    20:00 -2°C° 0 mm 1 mps 736 mmHg 96%
    21:00 -2°C° 0 mm 1 mps 736 mmHg 96%
    22:00 -3°C° 0 mm 1 mps 736 mmHg 96%
    23:00 -3°C° 0 mm 1 mps 737 mmHg 96%

    1 February, Saturday

    Time Temperature Precipitation Wind Pressure Humidity
    00:00 -3°C° 0 mm 1 mps 737 mmHg 96%
    01:00 -3°C° 0 mm 1 mps 737 mmHg 97%
    02:00 -2°C° 0 mm 1 mps 738 mmHg 97%
    03:00 -2°C° 0 mm 1 mps 738 mmHg 97%
    04:00 -3°C° 0 mm 1 mps 738 mmHg 97%
    05:00 -3°C° 0 mm 1 mps 738 mmHg 97%
    06:00 -2°C° 0 mm 1 mps 738 mmHg 96%
    07:00 -2°C° 0 mm 1 mps 738 mmHg 96%
    08:00 -4°C° 0 mm 2 mps 738 mmHg 95%
    09:00 -3°C° 0 mm 2 mps 738 mmHg 94%
    10:00 -3°C° 0 mm 2 mps 738 mmHg 93%
    11:00 -2°C° 0 mm 3 mps 738 mmHg 91%
    12:00 -2°C° 0 mm 3 mps 737 mmHg 90%
    13:00 -2°C° 0 mm 3 mps 737 mmHg 89%
    14:00 -3°C° 0 mm 4 mps 736 mmHg 88%
    15:00 -3°C° 0 mm 4 mps 736 mmHg 90%
    16:00 -3°C° 0 mm 4 mps 736 mmHg 92%
    17:00 -3°C° 0 mm 4 mps 735 mmHg 94%
    18:00 -3°C° 0.2 mm 4 mps 735 mmHg 94%
    19:00 -3°C° 0.2 mm 4 mps 734 mmHg 94%
    20:00 -3°C° 0.2 mm 4 mps 734 mmHg 94%
    21:00 -2°C° 0.1 mm 4 mps 734 mmHg 95%
    22:00 -2°C° 0.1 mm 4 mps 734 mmHg 96%
    23:00 -1°C° 0.1 mm 4 mps 733 mmHg 97%
    Show more